SCP
0 0 0 0 0 0 0 0 0 0 0 0 0 0 0 0 0 0 0 0 0 0 0 0 0 0 0 0 0 0 0 0 0 0 0 0 0 0 0 0 0 0 0
0 0 0 0 0 0 0 0 0 0 0 0 0 0 0 0 0 0 0 0 0 0 0 0 0 0 0 0 0 0 0 0 0 0 0 0 0 0 0 0 0 0 0
0 0 0 0 0 0 0 0 0 0 0 0 0 0 0 0 0 0 0 0 0 0 0 0 0 0 0 0 0 0 0 0 0 0 0 0 0 0 0 0 0 0 0
0 0 0 0 0 0 0 0 0 0 0 0 0 0 0 0 0 0 0 0 0 0 0 0 0 0 0 0 0 0 0 0 0 0 0 0 0 0 0 0 0 0 0
0 0 0 0 0 0 0 0 0 0 0 0 0 0 0 0 0 0 0 0 0 0 0 0 0 0 0 0 0 0 0 0 0 0 0 0 0 0 0 0 0 0 0
0 0 0 0 0 0 0 0 0 0 0 0 0 0 0 0 0 0 0 0 0 0 0 0 0 0 0 0 0 0 0 0 0 0 0 0 0 0 0 0 0 0 0
0 0 0 0 0 0 0 0 0 0 0 0 0 0 0 0 0 0 0 0 0 0 0 0 0 0 0 0 0 0 0 0 0 0 0 0 0 0 0 0 0 0 0
0 0 0 0 0 0 0 0 0 0 0 0 0 0 0 0 0 0 0 0 0 0 0 0 0 0 0 0 0 0 0 0 0 0 0 0 0 0 0 0 0 0 0
0 0 0 0 0 0 0 0 0 0 0 0 0 0 0 0 0 0 0 0 0 0 0 0 0 0 0 0 0 0 0 0 0 0 0 0 0 0 0 0 0 0 0
0 0 0 0 0 0 0 0 0 0 0 0 0 0 0 0 0 0 0 0 0 0 0 0 0 0 0 0 0 0 0 0 0 0 0 0 0 0 0 0 0 0 0
0 0 0 0 0 0 0 0 0 0 0 0 0 0 0 0 0 0 0 0 0 0 0 0 0 0 0 0 0 0 0 0 0 0 0 0 0 0 0 0 0 0 0
0 0 0 0 0 0 0 0 0 0 0 0 0 0 0 0 0 0 0 0 0 0 0 0 0 0 0 0 0 0 0 0 0 0 0 0 0 0 0 0 0 0 0
0 0 0 0 0 0 0 0 0 0 0 0 0 0 0 0 0 0 0 0 0 0 0 0 0 0 0 0 0 0 0 0 0 0 0 0 0 0 0 0 0 0 0
0 0 0 0 0 0 0 0 0 0 0 0 0 0 0 0 0 0 0 0 0 0 0 0 0 0 0 0 0 0 0 0 0 0 0 0 0 0 0 0 0 0 0
0 0 0 0 0 0 0 0 0 0 0 0 0 0 0 0 0 0 0 0 0 0 0 0 0 0 0 0 0 0 0 0 0 0 0 0 0 0 0 0 0 0 0
0 0 0 0 0 0 0 0 0 0 0 0 0 0 0 0 0 0 0 0 0 0 0 0 0 0 0 0 0 0 0 0 0 0 0 0 0 0 0 0 0 0 0
0 0 0 0 0 0 0 0 0 0 0 0 0 0 0 0 0 0 0 0 0 0 0 0 0 0 0 0 0 0 0 0 0 0 0 0 0 0 0 0 0 0 0
0 0 0 0 0 0 0 0 0 0 0 0 0 0 0 0 0 0 0 0 0 0 0 0 0 0 0 0 0 0 0 0 0 0 0 0 0 0 0 0 0 0 0
0 0 0 0 0 0 0 0 0 0 0 0 0 0 0 0 0 0 0 0 0 0 0 0 0 0 0 0 0 0 0 0 0 0 0 0 0 0 0 0 0 0 0
0 0 0 0 0 0 0 0 0 0 0 0 0 0 0 0 0 0 0 0 0 0 0 0 0 0 0 0 0 0 0 0 0 0 0 0 0 0 0 0 0 0 0
0 0 0 0 0 0 0 0 0 0 0 0 0 0 0 0 0 0 0 0 0 0 0 0 0 0 0 0 0 0 0 0 0 0 0 0 0 0 0 0 0 0 0
0 0 0 0 0 0 0 0 0 0 0 0 0 0 0 0 0 0 0 0 0 0 0 0 0 0 0 0 0 0 0 0 0 0 0 0 0 0 0 0 0 0 0
0 0 0 0 0 0 0 0 0 0 0 0 0 0 0 0 0 0 0 0 0 0 0 0 0 0 0 0 0 0 0 0 0 0 0 0 0 0 0 0 0 0 0
0 0 0 0 0 0 0 0 0 0 0 0 0 0 0 0 0 0 0 0 0 0 0 0 0 0 0 0 0 0 0 0 0 0 0 0 0 0 0 0 0 0 0
0 0 0 0 0 0 0 0 0 0 0 0 0 0 0 0 0 0 0 0 0 0 0 0 0 0 0 0 0 0 0 0 0 0 0 0 0 0 0 0 0 0 0
0 0 0 0 0 0 0 0 0 0 0 0 0 0 0 0 0 0 0 0 0 0 0 0 0 0 0 0 0 0 0 0 0 0 0 0 0 0 0 0 0 0 0
Wind_Speed
4 4 4 4 4 4 5 5 6 7 7 8 8 9 9 9 8 7 5 8 10 11 12 13 12 12 12 12 11 11 10 9 9 9 9 9 8 8 8 8 8 8 8
4 4 4 4 4 4 5 6 6 6 6 6 8 9 9 9 9 8 7 7 11 11 12 13 13 13 13 13 12 11 10 10 10 9 10 10 9 9 9 9 9 9 9
4 4 4 4 4 4 6 5 7 6 6 6 8 9 8 9 8 9 8 7 7 10 12 13 13 13 13 13 12 12 11 10 10 10 10 10 10 10 10 10 10 10 10
5 4 4 4 4 4 4 5 5 5 6 6 6 6 7 7 10 9 8 7 6 6 9 12 12 12 12 13 12 12 11 10 10 10 10 10 10 10 11 11 11 11 11
5 4 4 4 4 4 4 5 5 5 5 6 6 6 6 7 8 8 9 8 7 7 7 8 10 10 10 12 12 12 11 11 10 11 11 11 11 11 11 11 11 12 12
5 4 3 4 4 4 4 4 5 5 5 5 6 6 6 7 7 7 9 8 7 8 8 7 7 7 9 10 11 11 11 11 10 11 11 11 12 12 12 12 12 12 12
5 4 4 4 4 4 5 5 5 5 5 4 5 5 6 7 8 6 6 6 7 7 8 8 7 6 5 9 9 9 9 10 11 11 11 11 12 12 13 13 13 13 13
5 4 4 4 4 4 5 5 5 4 4 4 4 5 5 5 6 6 5 5 6 6 6 7 6 6 5 4 5 7 8 9 11 11 11 11 12 13 14 14 13 13 13
5 5 5 5 4 4 4 5 5 5 5 4 4 4 4 5 3 4 6 5 5 5 5 5 6 6 6 4 4 5 6 8 10 11 11 11 12 13 14 14 13 12 13
5 5 5 5 5 4 4 5 5 5 5 5 4 5 5 4 4 3 3 4 4 4 4 4 4 5 5 4 4 4 5 7 10 12 12 12 12 13 13 13 13 13 13
5 5 5 4 5 4 5 5 5 5 5 5 5 5 6 5 6 5 5 4 4 4 4 5 4 4 4 4 4 5 5 7 10 12 13 13 13 13 13 13 14 14 14
4 5 5 4 4 4 5 5 5 5 5 6 5 5 5 5 4 5 5 5 5 4 4 4 4 4 3 4 4 4 5 7 9 12 13 14 13 13 14 14 14 14 14
4 5 5 5 4 4 5 5 5 5 5 6 6 5 5 5 5 5 5 5 5 4 5 4 4 4 3 3 4 4 6 7 9 11 13 14 13 12 12 13 14 14 13
4 5 5 5 5 5 5 5 4 5 4 5 6 6 5 5 5 5 5 4 5 5 5 5 3 4 3 4 4 6 6 8 9 10 12 12 12 12 12 13 13 13 12
4 5 5 5 5 5 5 5 4 4 5 5 5 6 6 5 5 5 5 5 5 6 6 4 3 3 3 4 5 6 7 7 9 11 11 12 11 12 12 12 12 12 11
5 6 6 5 5 5 4 4 4 4 5 5 5 6 6 5 5 5 5 5 5 6 6 3 4 4 5 5 6 7 7 9 10 11 12 12 11 11 11 12 12 12 12
6 6 6 5 5 5 4 4 4 5 5 6 5 5 6 6 5 4 4 5 5 5 7 5 4 5 6 6 6 6 7 7 7 10 12 13 12 12 12 11 12 12 12
5 6 6 5 5 5 5 5 5 5 6 6 6 6 6 5 6 5 5 6 6 6 6 7 5 5 7 6 7 7 7 7 7 9 10 12 12 12 12 11 11 11 11
5 5 5 5 5 5 5 5 5 6 6 6 6 6 6 6 6 5 6 6 5 5 5 6 6 5 5 5 6 7 7 7 7 7 9 10 12 12 13 12 12 11 11
5 5 5 5 5 5 5 5 5 5 6 5 5 5 5 6 6 6 6 6 6 6 6 6 5 5 5 5 5 5 6 6 6 6 7 8 11 12 12 12 12 11 11
4 4 5 5 4 4 4 5 5 5 5 5 5 5 5 6 7 7 6 6 6 6 5 5 5 5 5 4 5 5 6 7 7 6 6 6 7 7 8 10 11 11 11
4 4 4 5 5 4 6 6 5 4 4 5 5 5 5 5 6 8 9 9 9 8 7 6 6 7 7 6 5 5 6 6 7 4 6 7 7 7 7 7 10 12 12
4 4 4 4 5 5 7 7 6 5 4 5 5 5 4 5 6 6 7 8 9 10 11 9 9 9 8 7 7 7 7 8 8 6 6 8 7 8 7 8 11 12 12
4 4 4 5 5 5 7 7 8 5 4 5 5 6 6 6 5 6 6 6 7 7 8 8 8 9 8 8 7 8 8 8 8 6 6 7 7 7 8 7 10 11 11
4 4 4 5 5 5 6 7 8 5 4 5 5 6 6 6 7 8 6 6 7 6 5 7 8 9 10 10 8 5 5 5 7 6 4 5 6 8 7 7 7 9 10
4 4 4 5 5 5 6 7 8 4 5 5 4 5 6 6 7 7 6 6 6 6 5 5 6 7 7 7 8 7 6 6 5 5 3 4 5 5 6 5 5 6 7
Wind_Direction
270 266 262 259 256 253 244 242 242 242 241 238 235 236 234 234 233 229 218 194 212 226 231 232 233 232 230 228 227 224 221 221 225 227 228 232 238 244 250 256 261 261 263
279 275 268 264 264 261 260 254 249 247 245 243 241 238 238 235 236 234 232 206 206 221 230 233 234 235 234 232 230 225 223 223 226 230 232 236 239 243 249 253 259 261 264
282 276 274 269 269 269 263 259 254 251 249 247 247 244 242 239 235 234 233 233 216 214 226 234 237 237 235 234 232 230 227 225 227 230 233 237 242 245 249 251 255 259 261
288 281 275 272 274 270 266 262 259 252 249 248 251 249 243 240 239 237 234 233 234 229 219 226 234 237 236 235 232 232 231 228 229 233 237 240 243 247 252 253 254 258 259
302 293 284 281 277 269 265 266 263 261 259 254 254 253 248 241 240 238 237 235 234 236 235 215 217 228 237 237 234 234 237 235 234 237 239 242 245 248 252 256 258 259 258
314 305 290 287 282 271 267 265 266 262 266 265 262 258 253 246 241 238 237 236 235 235 237 234 221 219 223 232 234 236 239 240 240 242 242 244 247 252 254 256 259 262 262
315 304 294 290 283 272 269 268 269 266 265 272 269 266 260 248 241 236 236 237 234 234 236 237 232 227 217 215 222 233 239 243 243 246 248 249 250 254 256 258 260 263 263
313 303 296 288 281 274 269 268 268 268 266 257 259 266 261 249 234 234 235 235 236 232 233 237 243 236 232 223 211 219 238 249 248 248 250 252 254 256 257 258 260 263 267
315 307 301 293 288 279 273 271 265 260 262 260 251 250 255 249 272 234 239 238 239 239 238 237 240 248 243 233 226 217 231 249 252 251 253 256 259 260 260 260 261 264 268
321 312 303 297 291 283 275 271 266 263 258 256 253 248 260 275 259 252 235 244 249 252 254 249 241 240 246 241 235 238 243 248 256 257 259 260 262 264 265 266 264 264 266
324 320 310 301 293 286 281 275 269 261 255 251 251 251 250 259 261 255 253 248 254 258 264 253 243 244 249 253 247 250 252 252 258 262 264 264 264 265 268 270 270 268 267
318 323 319 308 299 292 284 279 271 265 259 255 253 249 247 243 249 253 256 257 259 261 267 257 245 240 242 248 261 284 278 263 263 266 266 266 267 268 269 270 272 273 271
311 318 316 310 303 296 287 280 272 267 262 258 255 251 250 248 252 258 262 267 268 270 260 254 249 243 248 261 259 285 270 265 267 271 272 269 269 269 270 271 272 273 273
306 310 308 303 299 292 285 276 269 265 262 259 258 256 254 252 250 250 254 261 267 263 253 257 260 244 256 266 268 274 264 263 268 272 272 273 273 272 272 272 272 272 273
301 305 304 303 300 295 286 280 268 266 265 262 262 260 257 254 250 251 253 251 252 258 257 259 260 244 269 271 271 271 270 267 270 268 268 268 269 272 271 272 272 273 274
300 299 300 298 296 293 288 280 273 265 264 264 263 261 260 257 252 252 250 249 250 256 261 268 278 290 281 274 274 277 276 279 269 266 269 270 273 273 269 268 270 270 271
300 299 299 296 295 293 285 277 275 272 266 264 263 263 263 259 254 250 248 246 249 251 260 273 280 283 283 279 281 280 276 274 269 269 269 269 269 267 266 267 271 270 271
300 302 300 294 293 290 285 278 277 273 266 264 263 261 260 255 253 251 246 243 246 250 256 269 276 278 280 275 277 278 278 276 276 272 271 270 269 268 266 267 271 275 275
306 307 305 297 293 292 288 285 282 279 270 267 266 263 262 255 254 255 253 251 249 252 254 257 269 277 277 270 277 277 282 280 281 273 271 268 268 270 268 267 269 272 276
310 313 314 307 302 301 298 296 290 288 283 274 269 267 264 259 260 263 260 260 258 257 255 251 261 270 272 271 271 276 283 282 282 280 272 274 271 267 264 265 266 267 271
316 317 316 317 316 310 308 306 302 296 293 289 279 270 266 265 267 266 265 263 258 256 256 254 259 268 267 265 265 273 277 286 283 273 276 274 273 265 263 261 258 262 272
315 317 320 323 322 322 321 311 306 297 293 288 288 286 279 269 271 270 270 266 260 255 253 255 260 258 264 265 268 267 273 281 282 271 281 279 271 267 264 261 264 268 271
311 312 316 317 316 321 322 318 313 302 294 293 291 288 285 283 279 274 274 270 267 263 255 253 255 257 263 262 263 266 266 271 275 282 282 278 273 271 269 265 264 264 270
301 304 308 308 306 313 323 322 319 305 299 295 292 290 286 283 280 283 278 273 272 271 266 260 257 261 264 264 259 260 266 276 281 276 269 275 281 280 279 268 257 260 270
293 298 300 302 303 309 320 322 320 306 297 295 294 292 287 283 286 288 278 273 273 276 279 276 279 275 271 269 266 262 261 268 277 273 267 270 281 290 279 265 257 258 267
286 293 294 295 298 302 314 317 319 305 298 298 300 301 296 296 301 298 284 275 277 284 290 289 283 279 271 264 261 254 251 257 274 273 254 269 277 290 284 268 271 268 265